,,,PA_Meas_PMT16A,,PR_Meas_QMR101_102,,RH_Meas_QMH101,,SR_Meas_QMS101,,TA_Meas_QMH101,,GenWind,,GenWind,
date,time,status,PA,status,PR,status,RH,status,SR,status,TA,status,DirAvg,status,SpdAvg,
2009-03-07, 00:00:04,VALID,1001.62,VALID,0,VALID,91.0366,VALID,0,VALID,23.4298,VALID,131,VALID,0.239063,
2009-03-07, 00:01:04,VALID,1001.58,VALID,0,VALID,91.0977,VALID,0,VALID,23.4103,VALID,131,VALID,0.126172,
2009-03-07, 00:02:04,VALID,1001.58,VALID,0,VALID,91.0595,VALID,0,VALID,23.3908,VALID,131,VALID,0.18125,
2009-03-07, 00:03:04,VALID,1001.59,VALID,0,VALID,91.0214,VALID,0,VALID,23.3713,VALID,131,VALID,0.168359,
2009-03-07, 00:04:04,VALID,1001.57,VALID,0,VALID,90.9832,VALID,0,VALID,23.3518,VALID,131,VALID,0.323828,
2009-03-07, 00:05:04,VALID,1001.59,VALID,0,VALID,90.9069,VALID,0,VALID,23.3323,VALID,127,VALID,0.536328,
2009-03-07, 00:06:04,VALID,1001.56,VALID,0,VALID,90.9222,VALID,0,VALID,23.3518,VALID,127,VALID,0.469141,
2009-03-07, 00:07:04,VALID,1001.56,VALID,0,VALID,90.8001,VALID,0,VALID,23.3323,VALID,121,VALID,0.501562,
2009-03-07, 00:08:04,VALID,1001.54,VALID,0,VALID,90.617,VALID,0,VALID,23.3323,VALID,121,VALID,0.588672,
2009-03-07, 00:09:04,VALID,1001.51,VALID,0,VALID,90.678,VALID,0,VALID,23.3518,VALID,120,VALID,0.435547,
2009-03-07, 00:10:04,VALID,1001.49,VALID,0,VALID,90.7849,VALID,0,VALID,23.3518,VALID,120,VALID,0.457812,
2009-03-07, 00:11:04,VALID,1001.47,VALID,0,VALID,90.7085,VALID,0,VALID,23.3518,VALID,120,VALID,0.487891,
2009-03-07, 00:12:04,VALID,1001.43,VALID,0,VALID,90.6628,VALID,0,VALID,23.3323,VALID,120,VALID,0.590234,
2009-03-07, 00:13:04,VALID,1001.44,VALID,0,VALID,90.6628,VALID,0,VALID,23.3127,VALID,119,VALID,0.580859,
2009-03-07, 00:14:04,VALID,1001.38,VALID,0,VALID,90.7696,VALID,0,VALID,23.2932,VALID,118,VALID,0.6,
2009-03-07, 00:15:04,VALID,1001.36,VALID,0,VALID,90.884,VALID,0,VALID,23.2932,VALID,118,VALID,0.623828,
2009-03-07, 00:16:04,VALID,1001.34,VALID,0,VALID,90.9756,VALID,0,VALID,23.2737,VALID,118,VALID,0.532031,
2009-03-07, 00:17:04,VALID,1001.31,VALID,0,VALID,91.0443,VALID,0,VALID,23.2542,VALID,117,VALID,0.263672,
2009-03-07, 00:18:04,VALID,1001.31,VALID,0,VALID,91.1358,VALID,0,VALID,23.2347,VALID,117,VALID,0.342187,
2009-03-07, 00:19:04,VALID,1001.29,VALID,0,VALID,91.1053,VALID,0,VALID,23.1957,VALID,113,VALID,0.453125,
2009-03-07, 00:20:04,VALID,1001.26,VALID,0,VALID,91.174,VALID,0,VALID,23.1566,VALID,103,VALID,0.631641,
2009-03-07, 00:21:04,VALID,1001.25,VALID,0,VALID,91.0595,VALID,0,VALID,23.1176,VALID,102,VALID,0.339844,
2009-03-07, 00:22:04,VALID,1001.25,VALID,0,VALID,91.1282,VALID,0,VALID,23.0981,VALID,102,VALID,0.416797,
2009-03-07, 00:23:04,VALID,1001.23,VALID,0,VALID,91.09,VALID,0,VALID,23.0591,VALID,101,VALID,0.423828,
2009-03-07, 00:24:04,VALID,1001.2,VALID,0,VALID,91.2274,VALID,0,VALID,23.0006,VALID,90,VALID,0.538672,
2009-03-07, 00:25:04,VALID,1001.2,VALID,0,VALID,91.2197,VALID,0,VALID,23.0006,VALID,81,VALID,0.501562,
2009-03-07, 00:26:04,VALID,1001.19,VALID,0,VALID,91.1129,VALID,0,VALID,22.9811,VALID,75,VALID,0.369531,
2009-03-07, 00:27:04,VALID,1001.16,VALID,0,VALID,91.09,VALID,0,VALID,22.9403,VALID,74,VALID,0.404297,
2009-03-07, 00:28:04,VALID,1001.15,VALID,0,VALID,90.9603,VALID,0,VALID,22.9225,VALID,74,VALID,0.276563,
2009-03-07, 00:29:04,VALID,1001.13,VALID,0,VALID,90.8688,VALID,0,VALID,22.8835,VALID,74,VALID,0.210156,
2009-03-07, 00:30:04,VALID,1001.12,VALID,0,VALID,90.7391,VALID,0,VALID,22.825,VALID,74,VALID,0.284766,
2009-03-07, 00:31:04,VALID,1001.12,VALID,0,VALID,90.678,VALID,0,VALID,22.8055,VALID,74,VALID,0.167187,
2009-03-07, 00:32:04,VALID,1001.08,VALID,0,VALID,90.6933,VALID,0,VALID,22.7664,VALID,74,VALID,0,
2009-03-07, 00:33:04,VALID,1001.08,VALID,0,VALID,90.6399,VALID,0,VALID,22.7079,VALID,74,VALID,0,
2009-03-07, 00:34:04,VALID,1001.08,VALID,0,VALID,90.6551,VALID,0,VALID,22.6689,VALID,74,VALID,0.0449219,
2009-03-07, 00:35:04,VALID,1001.08,VALID,0,VALID,90.8459,VALID,0,VALID,22.6511,VALID,74,VALID,0.115625,
2009-03-07, 00:36:04,VALID,1001.09,VALID,0,VALID,91.0443,VALID,0,VALID,22.6299,VALID,74,VALID,0.0683594,
2009-03-07, 00:37:04,VALID,1001.05,VALID,0,VALID,91.0748,VALID,0,VALID,22.6299,VALID,74,VALID,0.344531,
2009-03-07, 00:38:04,VALID,1001.06,VALID,0,VALID,90.884,VALID,0,VALID,22.6511,VALID,74,VALID,0.295703,
2009-03-07, 00:39:04,VALID,1001.03,VALID,0,VALID,90.7009,VALID,0,VALID,22.6511,VALID,79,VALID,0.382031,
2009-03-07, 00:40:04,VALID,1001.02,VALID,0,VALID,90.5026,VALID,0,VALID,22.6511,VALID,86,VALID,0.237891,
2009-03-07, 00:41:04,VALID,1001,VALID,0,VALID,90.3881,VALID,0,VALID,22.6494,VALID,86,VALID,0.220313,
2009-03-07, 00:42:04,VALID,1001,VALID,0,VALID,90.3271,VALID,0,VALID,22.6884,VALID,86,VALID,0.190234,
2009-03-07, 00:43:04,VALID,1000.97,VALID,0,VALID,90.2813,VALID,0,VALID,22.7079,VALID,86,VALID,0.423047,
2009-03-07, 00:44:04,VALID,1000.98,VALID,0,VALID,89.7243,VALID,0,VALID,22.7469,VALID,100,VALID,0.96875,
2009-03-07, 00:45:04,VALID,1000.95,VALID,0,VALID,89.5336,VALID,0,VALID,22.8072,VALID,117,VALID,0.754687,
2009-03-07, 00:46:04,VALID,1000.94,VALID,0,VALID,89.2589,VALID,0,VALID,22.8037,VALID,101,VALID,0.905859,
2009-03-07, 00:47:04,VALID,1000.93,VALID,0,VALID,89.0148,VALID,0,VALID,22.864,VALID,102,VALID,0.619922,
2009-03-07, 00:48:04,VALID,1000.92,VALID,0,VALID,88.9843,VALID,0,VALID,22.8835,VALID,86,VALID,0.754297,
2009-03-07, 00:49:04,VALID,1000.9,VALID,0,VALID,89.0224,VALID,0,VALID,22.903,VALID,87,VALID,0.718359,
2009-03-07, 00:50:04,VALID,1000.87,VALID,0,VALID,89.0987,VALID,0,VALID,22.903,VALID,90,VALID,0.607422,
2009-03-07, 00:51:04,VALID,1000.86,VALID,0,VALID,89.0529,VALID,0,VALID,22.9438,VALID,91,VALID,0.617969,
2009-03-07, 00:52:04,VALID,1000.82,VALID,0,VALID,89.0529,VALID,0,VALID,22.9225,VALID,107,VALID,0.553125,
2009-03-07, 00:53:04,VALID,1000.81,VALID,0,VALID,89.1521,VALID,0,VALID,22.9243,VALID,107,VALID,0.377344,
2009-03-07, 00:54:04,VALID,1000.8,VALID,0,VALID,89.2742,VALID,0,VALID,22.903,VALID,107,VALID,0.299219,
2009-03-07, 00:55:04,VALID,1000.72,VALID,0,VALID,89.3505,VALID,0,VALID,22.903,VALID,107,VALID,0.333984,
2009-03-07, 00:56:04,VALID,1000.73,VALID,0,VALID,89.3276,VALID,0,VALID,22.8835,VALID,107,VALID,0.446875,
2009-03-07, 00:57:04,VALID,1000.67,VALID,0,VALID,89.3734,VALID,0,VALID,22.8835,VALID,107,VALID,0.469922,
2009-03-07, 00:58:04,VALID,1000.65,VALID,0,VALID,89.442,VALID,0,VALID,22.864,VALID,107,VALID,0.249609,
2009-03-07, 00:59:04,VALID,1000.65,VALID,0,VALID,89.5794,VALID,0,VALID,22.864,VALID,107,VALID,0.319141,
2009-03-07, 01:00:04,VALID,1000.63,VALID,0,VALID,89.5946,VALID,0,VALID,22.8852,VALID,107,VALID,0.301172,
2009-03-07, 01:01:04,VALID,1000.61,VALID,0,VALID,89.6328,VALID,0,VALID,22.864,VALID,107,VALID,0.209375,
2009-03-07, 01:02:04,VALID,1000.63,VALID,0,VALID,89.6557,VALID,0,VALID,22.8445,VALID,107,VALID,0,
2009-03-07, 01:03:04,VALID,1000.58,VALID,0,VALID,89.7625,VALID,0,VALID,22.825,VALID,107,VALID,0,
2009-03-07, 01:04:04,VALID,1000.59,VALID,0,VALID,89.8311,VALID,0,VALID,22.8055,VALID,107,VALID,0,
2009-03-07, 01:05:04,VALID,1000.59,VALID,0,VALID,89.938,VALID,0,VALID,22.786,VALID,107,VALID,0,
2009-03-07, 01:06:04,VALID,1000.59,VALID,0,VALID,90.0371,VALID,0,VALID,22.786,VALID,107,VALID,0,
2009-03-07, 01:07:04,VALID,1000.54,VALID,0,VALID,90.1134,VALID,0,VALID,22.8072,VALID,107,VALID,0,
2009-03-07, 01:08:04,VALID,1000.58,VALID,0,VALID,90.1668,VALID,0,VALID,22.7664,VALID,107,VALID,0.0046875,
2009-03-07, 01:09:04,VALID,1000.56,VALID,0,VALID,90.2279,VALID,0,VALID,22.7664,VALID,107,VALID,0.258984,
2009-03-07, 01:10:04,VALID,1000.54,VALID,0,VALID,90.2737,VALID,0,VALID,22.786,VALID,107,VALID,0.1625,
2009-03-07, 01:11:04,VALID,1000.51,VALID,0,VALID,90.3576,VALID,0,VALID,22.786,VALID,107,VALID,0.0980469,
2009-03-07, 01:12:04,VALID,1000.52,VALID,0,VALID,90.4949,VALID,0,VALID,22.7664,VALID,107,VALID,0.0121094,
2009-03-07, 01:13:04,VALID,1000.53,VALID,0,VALID,90.3423,VALID,0,VALID,22.786,VALID,155,VALID,0.585938,
2009-03-07, 01:14:04,VALID,1000.51,VALID,0,VALID,90.0219,VALID,0,VALID,22.7664,VALID,164,VALID,0.772266,
2009-03-07, 01:15:04,VALID,1000.47,VALID,0,VALID,89.8464,VALID,0,VALID,22.7469,VALID,147,VALID,0.928516,
2009-03-07, 01:16:04,VALID,1000.48,VALID,0,VALID,89.6023,VALID,0,VALID,22.7664,VALID,149,VALID,1.11055,
2009-03-07, 01:17:04,VALID,1000.45,VALID,0,VALID,89.4954,VALID,0,VALID,22.7664,VALID,149,VALID,0.947266,
2009-03-07, 01:18:04,VALID,1000.42,VALID,0,VALID,89.4115,VALID,0,VALID,22.786,VALID,145,VALID,0.747656,
2009-03-07, 01:19:04,VALID,1000.44,VALID,0,VALID,89.4115,VALID,0,VALID,22.8055,VALID,145,VALID,0.692969,
2009-03-07, 01:20:04,VALID,1000.4,VALID,0,VALID,89.3276,VALID,0,VALID,22.825,VALID,145,VALID,0.649609,
2009-03-07, 01:21:04,VALID,1000.37,VALID,0,VALID,89.32,VALID,0,VALID,22.8445,VALID,145,VALID,0.476563,
2009-03-07, 01:22:04,VALID,1000.37,VALID,0,VALID,89.1063,VALID,0,VALID,22.864,VALID,145,VALID,0.496094,
2009-03-07, 01:23:04,VALID,1000.36,VALID,0,VALID,88.9995,VALID,0,VALID,22.864,VALID,145,VALID,0.482422,
2009-03-07, 01:24:04,VALID,1000.35,VALID,0,VALID,88.9156,VALID,0,VALID,22.9047,VALID,145,VALID,0.447266,
2009-03-07, 01:25:04,VALID,1000.32,VALID,0,VALID,88.7783,VALID,0,VALID,22.8835,VALID,145,VALID,0.444922,
2009-03-07, 01:26:04,VALID,1000.37,VALID,0,VALID,88.7554,VALID,0,VALID,22.903,VALID,145,VALID,0.371094,
2009-03-07, 01:27:04,VALID,1000.37,VALID,0,VALID,88.7554,VALID,0,VALID,22.9225,VALID,143,VALID,0.623047,
2009-03-07, 01:28:04,VALID,1000.38,VALID,0,VALID,88.6638,VALID,0,VALID,22.903,VALID,127,VALID,0.920313,
2009-03-07, 01:29:04,VALID,1000.38,VALID,0,VALID,88.6333,VALID,0,VALID,22.903,VALID,129,VALID,0.821094,
2009-03-07, 01:30:04,VALID,1000.33,VALID,0,VALID,88.5646,VALID,0,VALID,22.8835,VALID,128,VALID,0.967969,
2009-03-07, 01:31:04,VALID,1000.34,VALID,0,VALID,88.5646,VALID,0,VALID,22.8835,VALID,122,VALID,1.08086,
2009-03-07, 01:32:04,VALID,1000.3,VALID,0,VALID,88.763,VALID,0,VALID,22.8835,VALID,136,VALID,0.727344,
2009-03-07, 01:33:04,VALID,1000.32,VALID,0,VALID,88.8164,VALID,0,VALID,22.8445,VALID,136,VALID,0.723828,
2009-03-07, 01:34:04,VALID,1000.28,VALID,0,VALID,88.9995,VALID,0,VALID,22.8055,VALID,144,VALID,0.566406,
2009-03-07, 01:35:04,VALID,1000.26,VALID,0,VALID,89.1521,VALID,0,VALID,22.7664,VALID,146,VALID,0.758594,
2009-03-07, 01:36:04,VALID,1000.27,VALID,0,VALID,89.2513,VALID,0,VALID,22.7469,VALID,147,VALID,0.473828,
2009-03-07, 01:37:04,VALID,1000.25,VALID,0,VALID,89.2513,VALID,0,VALID,22.7274,VALID,147,VALID,0.0957031,
2009-03-07, 01:38:04,VALID,1000.25,VALID,0,VALID,89.2894,VALID,0,VALID,22.6884,VALID,147,VALID,0,
2009-03-07, 01:39:04,VALID,1000.2,VALID,0,VALID,89.3276,VALID,0,VALID,22.6494,VALID,147,VALID,0,
2009-03-07, 01:40:04,VALID,1000.2,VALID,0,VALID,89.3581,VALID,0,VALID,22.6299,VALID,147,VALID,0,
2009-03-07, 01:41:04,VALID,1000.17,VALID,0,VALID,89.7014,VALID,0,VALID,22.5909,VALID,147,VALID,0,
2009-03-07, 01:42:04,VALID,1000.17,VALID,0,VALID,89.9227,VALID,0,VALID,22.5909,VALID,147,VALID,0.216797,
2009-03-07, 01:43:04,VALID,1000.17,VALID,0,VALID,89.938,VALID,0,VALID,22.5909,VALID,147,VALID,0.141406,
2009-03-07, 01:44:04,VALID,1000.17,VALID,0,VALID,89.938,VALID,0,VALID,22.5714,VALID,147,VALID,0,
2009-03-07, 01:45:04,VALID,1000.18,VALID,0,VALID,90.0066,VALID,0,VALID,22.5519,VALID,147,VALID,0,
2009-03-07, 01:46:04,VALID,1000.19,VALID,0,VALID,90.1287,VALID,0,VALID,22.5519,VALID,147,VALID,0.204688,
2009-03-07, 01:47:04,VALID,1000.17,VALID,0,VALID,90.3728,VALID,0,VALID,22.5323,VALID,133,VALID,0.289844,
2009-03-07, 01:48:04,VALID,1000.16,VALID,0,VALID,90.5636,VALID,0,VALID,22.5323,VALID,98,VALID,0.542969,
2009-03-07, 01:49:04,VALID,1000.17,VALID,0,VALID,91.1816,VALID,0,VALID,22.5519,VALID,69,VALID,0.637109,
2009-03-07, 01:50:04,VALID,1000.18,VALID,0,VALID,91.0443,VALID,0,VALID,22.5714,VALID,58,VALID,0.558594,
2009-03-07, 01:51:04,VALID,1000.17,VALID,0,VALID,91.0595,VALID,0,VALID,22.5909,VALID,59,VALID,0.620313,
2009-03-07, 01:52:04,VALID,1000.17,VALID,0,VALID,90.9527,VALID,0,VALID,22.6104,VALID,59,VALID,0.607031,
2009-03-07, 01:53:04,VALID,1000.14,VALID,0,VALID,90.8535,VALID,0,VALID,22.6511,VALID,59,VALID,0.337891,
2009-03-07, 01:54:04,VALID,1000.18,VALID,0,VALID,90.884,VALID,0,VALID,22.6494,VALID,59,VALID,0.396875,
2009-03-07, 01:55:04,VALID,1000.17,VALID,0,VALID,91.174,VALID,0,VALID,22.6689,VALID,59,VALID,0.336328,
2009-03-07, 01:56:04,VALID,1000.15,VALID,0,VALID,91.3037,VALID,0,VALID,22.6884,VALID,59,VALID,0.213281,
2009-03-07, 01:57:04,VALID,1000.11,VALID,0,VALID,91.235,VALID,0,VALID,22.6884,VALID,59,VALID,0.0109375,
2009-03-07, 01:58:04,VALID,1000.11,VALID,0,VALID,91.3647,VALID,0,VALID,22.7096,VALID,59,VALID,0.158594,
2009-03-07, 01:59:04,VALID,1000.08,VALID,0,VALID,91.4105,VALID,0,VALID,22.6884,VALID,59,VALID,0.191797,
2009-03-07, 02:00:04,VALID,1000.1,VALID,0,VALID,91.4868,VALID,0,VALID,22.7079,VALID,59,VALID,0.0667969,
2009-03-07, 02:01:04,VALID,1000.1,VALID,0,VALID,91.5402,VALID,0,VALID,22.6477,VALID,59,VALID,0.0363281,
2009-03-07, 02:02:04,VALID,1000.08,VALID,0,VALID,91.6165,VALID,0,VALID,22.6494,VALID,59,VALID,0.191016,
2009-03-07, 02:03:04,VALID,1000.08,VALID,0,VALID,91.7004,VALID,0,VALID,22.6511,VALID,59,VALID,0.284766,
2009-03-07, 02:04:04,VALID,1000.06,VALID,0,VALID,91.7614,VALID,0,VALID,22.6299,VALID,59,VALID,0.319531,
2009-03-07, 02:05:04,VALID,1000.04,VALID,0,VALID,91.8225,VALID,0,VALID,22.6299,VALID,59,VALID,0.304688,
2009-03-07, 02:06:04,VALID,1000.01,VALID,0,VALID,91.8606,VALID,0,VALID,22.6316,VALID,59,VALID,0.442969,
2009-03-07, 02:07:04,VALID,1000.01,VALID,0,VALID,91.8606,VALID,0,VALID,22.6104,VALID,59,VALID,0.475,
2009-03-07, 02:08:04,VALID,1000.01,VALID,0,VALID,91.7843,VALID,0,VALID,22.5909,VALID,55,VALID,0.694531,
2009-03-07, 02:09:04,VALID,1000.03,VALID,0,VALID,91.6546,VALID,0,VALID,22.5714,VALID,47,VALID,0.711328,
2009-03-07, 02:10:04,VALID,1000.01,VALID,0,VALID,91.7462,VALID,0,VALID,22.5519,VALID,47,VALID,0.670313,
2009-03-07, 02:11:04,VALID,999.992,VALID,0,VALID,91.7614,VALID,0,VALID,22.5323,VALID,47,VALID,0.740234,
2009-03-07, 02:12:04,VALID,999.989,VALID,0,VALID,91.7538,VALID,0,VALID,22.5323,VALID,47,VALID,0.700781,
2009-03-07, 02:13:04,VALID,999.97,VALID,0,VALID,91.7004,VALID,0,VALID,22.5323,VALID,47,VALID,0.621875,
2009-03-07, 02:14:04,VALID,999.928,VALID,0,VALID,91.6928,VALID,0,VALID,22.5323,VALID,47,VALID,0.473828,
2009-03-07, 02:15:04,VALID,999.885,VALID,0,VALID,91.7004,VALID,0,VALID,22.5519,VALID,47,VALID,0.496875,
2009-03-07, 02:16:04,VALID,999.849,VALID,0,VALID,91.4944,VALID,0,VALID,22.5519,VALID,47,VALID,0.30625,
2009-03-07, 02:17:04,VALID,999.86,VALID,0,VALID,91.6088,VALID,0,VALID,22.5519,VALID,47,VALID,0.349609,
2009-03-07, 02:18:04,VALID,999.842,VALID,0,VALID,91.5554,VALID,0,VALID,22.5323,VALID,47,VALID,0.143359,
2009-03-07, 02:19:04,VALID,999.813,VALID,0,VALID,91.4944,VALID,0,VALID,22.5323,VALID,47,VALID,0.0957031,
2009-03-07, 02:20:04,VALID,999.8,VALID,0,VALID,91.502,VALID,0,VALID,22.5128,VALID,47,VALID,0.126172,
2009-03-07, 02:21:04,VALID,999.776,VALID,0,VALID,91.586,VALID,0,VALID,22.4738,VALID,47,VALID,0.237891,
2009-03-07, 02:22:04,VALID,999.777,VALID,0,VALID,91.708,VALID,0,VALID,22.4933,VALID,47,VALID,0.253125,
2009-03-07, 02:23:04,VALID,999.776,VALID,0,VALID,91.8301,VALID,0,VALID,22.4543,VALID,47,VALID,0.232031,
2009-03-07, 02:24:04,VALID,999.769,VALID,0,VALID,91.9674,VALID,0,VALID,22.4738,VALID,47,VALID,0.230859,
2009-03-07, 02:25:04,VALID,999.749,VALID,0,VALID,92.0971,VALID,0,VALID,22.4755,VALID,47,VALID,0.229297,
2009-03-07, 02:26:04,VALID,999.743,VALID,0,VALID,92.1048,VALID,0,VALID,22.495,VALID,47,VALID,0.193359,
2009-03-07, 02:27:04,VALID,999.725,VALID,0,VALID,92.2192,VALID,0,VALID,22.4543,VALID,47,VALID,0.123438,
2009-03-07, 02:28:04,VALID,999.743,VALID,0,VALID,92.2192,VALID,0,VALID,22.4543,VALID,47,VALID,0.18125,
2009-03-07, 02:29:04,VALID,999.68,VALID,0,VALID,92.3413,VALID,0,VALID,22.4348,VALID,95,VALID,0.513281,
2009-03-07, 02:30:04,VALID,999.674,VALID,0,VALID,92.4023,VALID,0,VALID,22.456,VALID,87,VALID,0.435547,
2009-03-07, 02:31:04,VALID,999.687,VALID,0,VALID,92.1887,VALID,0,VALID,22.4348,VALID,91,VALID,0.558203,
2009-03-07, 02:32:04,VALID,999.67,VALID,0,VALID,92.1887,VALID,0,VALID,22.456,VALID,91,VALID,0.375391,
2009-03-07, 02:33:04,VALID,999.686,VALID,0,VALID,92.1811,VALID,0,VALID,22.417,VALID,91,VALID,0.396484,
2009-03-07, 02:34:04,VALID,999.662,VALID,0,VALID,92.3031,VALID,0,VALID,22.3958,VALID,91,VALID,0.296484,
2009-03-07, 02:35:04,VALID,999.665,VALID,0,VALID,92.3947,VALID,0,VALID,22.3958,VALID,91,VALID,0.438281,
2009-03-07, 02:36:04,VALID,999.643,VALID,0,VALID,92.4634,VALID,0,VALID,22.417,VALID,94,VALID,0.481641,
2009-03-07, 02:37:04,VALID,999.613,VALID,0,VALID,92.5549,VALID,0,VALID,22.4153,VALID,107,VALID,0.464844,
2009-03-07, 02:38:04,VALID,999.626,VALID,0,VALID,92.4863,VALID,0,VALID,22.4348,VALID,107,VALID,0.328125,
2009-03-07, 02:39:04,VALID,999.665,VALID,0,VALID,92.5626,VALID,0,VALID,22.4543,VALID,108,VALID,0.390234,
2009-03-07, 02:40:04,VALID,999.637,VALID,0,VALID,92.5091,VALID,0,VALID,22.4755,VALID,108,VALID,0.302344,
2009-03-07, 02:41:04,VALID,999.64,VALID,0,VALID,92.6007,VALID,0,VALID,22.4543,VALID,108,VALID,0.114063,
2009-03-07, 02:42:04,VALID,999.619,VALID,0,VALID,92.5931,VALID,0,VALID,22.4755,VALID,108,VALID,0.159375,
2009-03-07, 02:43:04,VALID,999.624,VALID,0,VALID,92.5778,VALID,0,VALID,22.4348,VALID,108,VALID,0.114063,
2009-03-07, 02:44:04,VALID,999.634,VALID,0,VALID,92.677,VALID,0,VALID,22.4348,VALID,108,VALID,0.0589844,
2009-03-07, 02:45:04,VALID,999.59,VALID,0,VALID,92.7151,VALID,0,VALID,22.4365,VALID,108,VALID,0.148047,
2009-03-07, 02:46:04,VALID,999.593,VALID,0,VALID,92.8143,VALID,0,VALID,22.4365,VALID,110,VALID,0.330078,
2009-03-07, 02:47:04,VALID,999.595,VALID,0,VALID,92.9364,VALID,0,VALID,22.4153,VALID,129,VALID,0.483594,
2009-03-07, 02:48:04,VALID,999.584,VALID,0,VALID,92.9822,VALID,0,VALID,22.4348,VALID,142,VALID,0.35625,
2009-03-07, 02:49:04,VALID,999.594,VALID,0,VALID,93.0432,VALID,0,VALID,22.4543,VALID,145,VALID,0.449609,
2009-03-07, 02:50:04,VALID,999.58,VALID,0,VALID,93.0508,VALID,0,VALID,22.4543,VALID,145,VALID,0.472266,
2009-03-07, 02:51:04,VALID,999.619,VALID,0,VALID,92.9974,VALID,0,VALID,22.4738,VALID,146,VALID,0.272656,
2009-03-07, 02:52:04,VALID,999.602,VALID,0,VALID,93.0203,VALID,0,VALID,22.4543,VALID,146,VALID,0.160938,
2009-03-07, 02:53:04,VALID,999.61,VALID,0,VALID,93.028,VALID,0,VALID,22.4738,VALID,146,VALID,0.110547,
2009-03-07, 02:54:04,VALID,999.595,VALID,0,VALID,92.9517,VALID,0,VALID,22.4738,VALID,146,VALID,0.130469,
2009-03-07, 02:55:04,VALID,999.612,VALID,0,VALID,92.9364,VALID,0,VALID,22.4738,VALID,146,VALID,0.00195313,
2009-03-07, 02:56:04,VALID,999.579,VALID,0,VALID,92.944,VALID,0,VALID,22.4738,VALID,146,VALID,0.0765625,
2009-03-07, 02:57:04,VALID,999.595,VALID,0,VALID,92.883,VALID,0,VALID,22.4738,VALID,146,VALID,0.264453,
2009-03-07, 02:58:04,VALID,999.578,VALID,0,VALID,92.8601,VALID,0,VALID,22.4543,VALID,146,VALID,0.0121094,
2009-03-07, 02:59:04,VALID,999.563,VALID,0,VALID,92.9364,VALID,0,VALID,22.4738,VALID,146,VALID,0,
2009-03-07, 03:00:04,VALID,999.593,VALID,0,VALID,92.9135,VALID,0,VALID,22.4933,VALID,146,VALID,0,
2009-03-07, 03:01:04,VALID,999.604,VALID,0,VALID,92.8601,VALID,0,VALID,22.4738,VALID,146,VALID,0,
2009-03-07, 03:02:04,VALID,999.613,VALID,0,VALID,92.7991,VALID,0,VALID,22.4738,VALID,146,VALID,0,
2009-03-07, 03:03:04,VALID,999.608,VALID,0,VALID,92.8677,VALID,0,VALID,22.4738,VALID,146,VALID,0,
2009-03-07, 03:04:04,VALID,999.605,VALID,0,VALID,92.8143,VALID,0,VALID,22.4738,VALID,146,VALID,0,
2009-03-07, 03:05:04,VALID,999.612,VALID,0,VALID,92.6541,VALID,0,VALID,22.4543,VALID,146,VALID,0,
2009-03-07, 03:06:04,VALID,999.596,VALID,0,VALID,92.6999,VALID,0,VALID,22.4153,VALID,146,VALID,0,
2009-03-07, 03:07:04,VALID,999.565,VALID,0,VALID,92.677,VALID,0,VALID,22.3958,VALID,146,VALID,0,
2009-03-07, 03:08:04,VALID,999.583,VALID,0,VALID,92.7685,VALID,0,VALID,22.3763,VALID,146,VALID,0,
2009-03-07, 03:09:04,VALID,999.56,VALID,0,VALID,92.883,VALID,0,VALID,22.3763,VALID,146,VALID,0,
2009-03-07, 03:10:04,VALID,999.548,VALID,0,VALID,93.0661,VALID,0,VALID,22.3763,VALID,146,VALID,0,
2009-03-07, 03:11:04,VALID,999.553,VALID,0,VALID,93.0585,VALID,0,VALID,22.4153,VALID,145,VALID,0.259766,
2009-03-07, 03:12:04,VALID,999.549,VALID,0,VALID,92.8983,VALID,0,VALID,22.3941,VALID,145,VALID,0.523828,
2009-03-07, 03:13:04,VALID,999.577,VALID,0,VALID,92.7304,VALID,0.112286,VALID,22.4153,VALID,145,VALID,0.609766,
2009-03-07, 03:14:04,VALID,999.556,VALID,0,VALID,92.5626,VALID,0,VALID,22.4348,VALID,139,VALID,0.716406,
2009-03-07, 03:15:04,VALID,999.569,VALID,0,VALID,92.3642,VALID,0,VALID,22.4543,VALID,139,VALID,0.707422,
2009-03-07, 03:16:04,VALID,999.559,VALID,0,VALID,92.2116,VALID,0,VALID,22.4933,VALID,139,VALID,0.779688,
2009-03-07, 03:17:04,VALID,999.513,VALID,0,VALID,92.12,VALID,0,VALID,22.5128,VALID,139,VALID,0.710547,
2009-03-07, 03:18:04,VALID,999.536,VALID,0,VALID,92.059,VALID,0,VALID,22.5519,VALID,139,VALID,0.750781,
2009-03-07, 03:19:04,VALID,999.522,VALID,0,VALID,91.9445,VALID,0,VALID,22.5714,VALID,137,VALID,0.726563,
2009-03-07, 03:20:04,VALID,999.519,VALID,0,VALID,91.8072,VALID,0,VALID,22.5714,VALID,137,VALID,0.738281,
2009-03-07, 03:21:04,VALID,999.562,VALID,0,VALID,91.7843,VALID,0,VALID,22.5714,VALID,132,VALID,0.716406,
2009-03-07, 03:22:04,VALID,999.548,VALID,0,VALID,91.7309,VALID,0,VALID,22.6104,VALID,125,VALID,0.546484,
2009-03-07, 03:23:04,VALID,999.538,VALID,0,VALID,91.6775,VALID,0,VALID,22.5909,VALID,112,VALID,0.674219,
2009-03-07, 03:24:04,VALID,999.574,VALID,0,VALID,91.6851,VALID,0,VALID,22.5909,VALID,112,VALID,0.647266,
2009-03-07, 03:25:04,VALID,999.531,VALID,0,VALID,91.6699,VALID,0,VALID,22.5714,VALID,112,VALID,0.65625,
2009-03-07, 03:26:04,VALID,999.532,VALID,0,VALID,91.7309,VALID,0,VALID,22.5714,VALID,112,VALID,0.619531,
2009-03-07, 03:27:04,VALID,999.523,VALID,0,VALID,91.8072,VALID,0,VALID,22.5714,VALID,112,VALID,0.689453,
2009-03-07, 03:28:04,VALID,999.455,VALID,0,VALID,91.853,VALID,0,VALID,22.5714,VALID,112,VALID,0.663281,
2009-03-07, 03:29:04,VALID,999.477,VALID,0,VALID,91.853,VALID,0,VALID,22.5909,VALID,112,VALID,0.514063,
2009-03-07, 03:30:04,VALID,999.47,VALID,0,VALID,91.9522,VALID,0,VALID,22.5714,VALID,112,VALID,0.4125,
2009-03-07, 03:31:04,VALID,999.43,VALID,0,VALID,92.1353,VALID,0,VALID,22.5519,VALID,112,VALID,0.346484,
2009-03-07, 03:32:04,VALID,999.43,VALID,0,VALID,92.1963,VALID,0,VALID,22.5519,VALID,112,VALID,0.182422,
2009-03-07, 03:33:04,VALID,999.429,VALID,0,VALID,92.2497,VALID,0,VALID,22.5519,VALID,112,VALID,0.0628906,
2009-03-07, 03:34:04,VALID,999.408,VALID,0,VALID,92.3718,VALID,0,VALID,22.5323,VALID,112,VALID,0.0238281,
2009-03-07, 03:35:04,VALID,999.428,VALID,0,VALID,92.4405,VALID,0,VALID,22.5323,VALID,112,VALID,0,
2009-03-07, 03:36:04,VALID,999.415,VALID,0,VALID,92.4786,VALID,0,VALID,22.5111,VALID,112,VALID,0,
2009-03-07, 03:37:04,VALID,999.435,VALID,0,VALID,92.5473,VALID,0,VALID,22.4933,VALID,112,VALID,0,
2009-03-07, 03:38:04,VALID,999.4,VALID,0,VALID,92.677,VALID,0,VALID,22.4933,VALID,112,VALID,0,
2009-03-07, 03:39:04,VALID,999.396,VALID,0,VALID,92.7609,VALID,0,VALID,22.4738,VALID,112,VALID,0,
2009-03-07, 03:40:04,VALID,999.411,VALID,0,VALID,92.8754,VALID,0,VALID,22.4933,VALID,112,VALID,0,
2009-03-07, 03:41:04,VALID,999.365,VALID,0,VALID,92.8983,VALID,0,VALID,22.4738,VALID,112,VALID,0.220313,
2009-03-07, 03:42:04,VALID,999.399,VALID,0,VALID,92.9593,VALID,0,VALID,22.4738,VALID,112,VALID,0.372656,
2009-03-07, 03:43:04,VALID,999.38,VALID,0,VALID,93.0432,VALID,0,VALID,22.4738,VALID,88,VALID,0.434766,
2009-03-07, 03:44:04,VALID,999.383,VALID,0,VALID,93.0432,VALID,0,VALID,22.4738,VALID,32,VALID,0.68125,
2009-03-07, 03:45:04,VALID,999.367,VALID,0,VALID,93.0432,VALID,0,VALID,22.4738,VALID,15,VALID,0.824609,
2009-03-07, 03:46:04,VALID,999.342,VALID,0,VALID,93.1729,VALID,0,VALID,22.4526,VALID,15,VALID,0.69375,
2009-03-07, 03:47:04,VALID,999.325,VALID,0,VALID,93.2721,VALID,0,VALID,22.4543,VALID,15,VALID,0.598828,